Terug naar catalogus

SL-3 R/B

ActiefPO
NORAD 11166·ROCKET BODY·🇷🇺 Russia

Gelanceerd Dec 23, 1978 vanaf Plesetsk Cosmodrome

Loading…

Volgende Passages (komende 24 uur)

TLE

VersSource: Space-Track

Epoch: Sep 14, 2026, 21:15 UTC

1 11166U 78121B   26257.88552612 -.00000066  00000-0 -40192-4 0  9997
2 11166  81.2370 112.8318 0066146   7.9798 352.2410 14.14284891460891

Volg SL-3 R/B in realtime met AllMySat

Download on the App Store